Time,TemperatureF,DewpointF,PressureIn,WindDirection,WindDirectionDegrees,WindSpeedMPH,WindSpeedGustMPH,Humidity,HourlyPrecipIn,Conditions,Clouds,dailyrainin,SoftwareType,DateUTC
2013-02-12 00:14:00,18.9,15.0,29.95,West,279,0.0,0.0,84,0.00,,,0.00,weatherlink.com 1.10,2013-02-12 07:14:00,
2013-02-12 00:29:00,17.2,13.0,29.95,West,279,0.0,0.0,82,0.00,,,0.00,weatherlink.com 1.10,2013-02-12 07:29:00,
2013-02-12 00:44:00,16.3,13.0,29.94,West,279,1.0,2.0,85,0.00,,,0.00,weatherlink.com 1.10,2013-02-12 07:44:00,
2013-02-12 00:59:00,16.1,12.0,29.94,West,279,1.0,3.0,83,0.00,,,0.00,weatherlink.com 1.10,2013-02-12 07:59:00,
2013-02-12 01:14:00,15.8,12.0,29.93,West,279,0.0,3.0,84,0.00,,,0.00,weatherlink.com 1.10,2013-02-12 08:14:00,
2013-02-12 01:30:00,17.0,14.0,29.94,West,279,0.0,2.0,87,0.00,,,0.00,weatherlink.com 1.10,2013-02-12 08:30:00,
2013-02-12 01:44:00,18.2,15.0,29.94,West,278,0.0,0.0,87,0.00,,,0.00,weatherlink.com 1.10,2013-02-12 08:44:00,
2013-02-12 02:00:00,19.0,16.0,29.93,West,279,0.0,0.0,86,0.00,,,0.00,weatherlink.com 1.10,2013-02-12 09:00:00,
2013-02-12 02:14:00,19.3,16.0,29.93,West,279,0.0,0.0,87,0.00,,,0.00,weatherlink.com 1.10,2013-02-12 09:14:00,
2013-02-12 02:29:00,19.2,16.0,29.93,West,279,0.0,0.0,86,0.00,,,0.00,weatherlink.com 1.10,2013-02-12 09:29:00,
2013-02-12 02:44:00,19.0,15.0,29.93,West,278,0.0,0.0,85,0.00,,,0.00,weatherlink.com 1.10,2013-02-12 09:44:00,
2013-02-12 02:59:00,18.8,15.0,29.94,West,278,0.0,0.0,85,0.00,,,0.00,weatherlink.com 1.10,2013-02-12 09:59:00,
2013-02-12 03:14:00,18.7,15.0,29.94,West,277,0.0,0.0,85,0.00,,,0.00,weatherlink.com 1.10,2013-02-12 10:14:00,
2013-02-12 03:29:00,18.7,15.0,29.94,West,279,0.0,0.0,85,0.00,,,0.00,weatherlink.com 1.10,2013-02-12 10:29:00,
2013-02-12 03:44:00,18.3,14.0,29.94,West,278,0.0,1.0,84,0.00,,,0.00,weatherlink.com 1.10,2013-02-12 10:44:00,
2013-02-12 04:00:00,17.5,14.0,29.95,West,277,0.0,3.0,84,0.00,,,0.00,weatherlink.com 1.10,2013-02-12 11:00:00,
2013-02-12 04:14:00,16.8,13.0,29.95,West,278,0.0,0.0,84,0.00,,,0.00,weatherlink.com 1.10,2013-02-12 11:14:00,
2013-02-12 04:29:00,16.3,12.0,29.95,West,278,0.0,1.0,84,0.00,,,0.00,weatherlink.com 1.10,2013-02-12 11:29:00,
2013-02-12 04:44:00,16.1,12.0,29.96,West,278,2.0,4.0,82,0.00,,,0.00,weatherlink.com 1.10,2013-02-12 11:44:00,
2013-02-12 04:59:00,15.6,11.0,29.96,West,278,1.0,4.0,82,0.00,,,0.00,weatherlink.com 1.10,2013-02-12 11:59:00,
2013-02-12 05:15:00,15.8,11.0,29.96,West,278,0.0,3.0,82,0.00,,,0.00,weatherlink.com 1.10,2013-02-12 12:15:00,
2013-02-12 05:30:00,15.4,11.0,29.97,West,278,4.0,5.0,81,0.00,,,0.00,weatherlink.com 1.10,2013-02-12 12:30:00,
2013-02-12 05:45:00,14.5,10.0,29.98,West,277,2.0,5.0,81,0.00,,,0.00,weatherlink.com 1.10,2013-02-12 12:45:00,
2013-02-12 06:00:00,14.5,10.0,29.98,West,277,0.0,5.0,81,0.00,,,0.00,weatherlink.com 1.10,2013-02-12 13:00:00,
2013-02-12 06:15:00,14.8,9.0,29.99,West,277,3.0,5.0,79,0.00,,,0.00,weatherlink.com 1.10,2013-02-12 13:15:00,
2013-02-12 06:30:00,14.2,9.0,30.01,West,275,2.0,6.0,79,0.00,,,0.00,weatherlink.com 1.10,2013-02-12 13:30:00,
2013-02-12 06:45:00,13.4,8.0,30.01,West,275,0.0,6.0,79,0.00,,,0.00,weatherlink.com 1.10,2013-02-12 13:45:00,
2013-02-12 07:00:00,12.3,7.0,30.02,West,273,2.0,6.0,79,0.00,,,0.00,weatherlink.com 1.10,2013-02-12 14:00:00,
2013-02-12 07:15:00,12.0,7.0,30.03,West,272,3.0,4.0,79,0.00,,,0.00,weatherlink.com 1.10,2013-02-12 14:15:00,
2013-02-12 07:29:00,12.2,7.0,30.01,West,272,0.0,6.0,78,0.00,,,0.00,weatherlink.com 1.10,2013-02-12 14:29:00,
2013-02-12 07:45:00,11.8,6.0,30.02,West,272,1.0,5.0,78,0.00,,,0.00,weatherlink.com 1.10,2013-02-12 14:45:00,
2013-02-12 07:59:00,12.6,7.0,30.03,West,270,2.0,6.0,79,0.00,,,0.00,weatherlink.com 1.10,2013-02-12 14:59:00,
2013-02-12 08:15:00,12.9,7.0,30.04,West,267,2.0,7.0,76,0.00,,,0.00,weatherlink.com 1.10,2013-02-12 15:15:00,
2013-02-12 08:29:00,14.3,8.0,30.05,WSW,257,4.0,8.0,76,0.00,,,0.00,weatherlink.com 1.10,2013-02-12 15:29:00,
2013-02-12 08:44:00,15.7,9.0,30.05,WSW,254,2.0,8.0,76,0.00,,,0.00,weatherlink.com 1.10,2013-02-12 15:44:00,
2013-02-12 08:59:00,17.1,11.0,30.05,WSW,252,5.0,7.0,76,0.00,,,0.00,weatherlink.com 1.10,2013-02-12 15:59:00,
2013-02-12 09:15:00,18.2,12.0,30.06,WSW,257,3.0,8.0,75,0.00,,,0.00,weatherlink.com 1.10,2013-02-12 16:15:00,
2013-02-12 09:30:00,18.7,12.0,30.06,West,259,1.0,7.0,74,0.00,,,0.00,weatherlink.com 1.10,2013-02-12 16:30:00,
2013-02-12 09:45:00,19.2,11.0,30.07,WSW,258,2.0,6.0,70,0.00,,,0.00,weatherlink.com 1.10,2013-02-12 16:45:00,
2013-02-12 10:00:00,19.7,11.0,30.07,West,259,3.0,5.0,69,0.00,,,0.00,weatherlink.com 1.10,2013-02-12 17:00:00,
2013-02-12 10:15:00,20.8,11.0,30.07,West,259,3.0,6.0,66,0.01,,,0.01,weatherlink.com 1.10,2013-02-12 17:15:00,
2013-02-12 10:30:00,22.0,12.0,30.06,WSW,257,3.0,7.0,65,0.02,,,0.02,weatherlink.com 1.10,2013-02-12 17:30:00,
2013-02-12 10:45:00,22.5,11.0,30.08,WSW,257,0.0,8.0,61,0.03,,,0.03,weatherlink.com 1.10,2013-02-12 17:45:00,
2013-02-12 11:15:00,24.8,11.0,30.07,WSW,254,0.0,6.0,56,0.03,,,0.04,weatherlink.com 1.10,2013-02-12 18:15:00,
2013-02-12 11:30:00,26.1,11.0,30.07,WSW,254,0.0,5.0,52,0.03,,,0.05,weatherlink.com 1.10,2013-02-12 18:30:00,
2013-02-12 11:46:00,26.6,12.0,30.06,WSW,242,6.0,12.0,55,0.03,,,0.06,weatherlink.com 1.10,2013-02-12 18:46:00,
2013-02-12 12:00:00,27.1,10.0,30.06,WSW,246,2.0,6.0,48,0.03,,,0.06,weatherlink.com 1.10,2013-02-12 19:00:00,
2013-02-12 12:16:00,27.9,9.0,30.06,WSW,249,0.0,7.0,45,0.03,,,0.07,weatherlink.com 1.10,2013-02-12 19:16:00,
2013-02-12 12:31:00,29.1,10.0,30.05,NNW,327,5.0,10.0,44,0.03,,,0.08,weatherlink.com 1.10,2013-02-12 19:31:00,
2013-02-12 12:46:00,29.0,7.0,30.05,WNW,302,2.0,11.0,39,0.02,,,0.08,weatherlink.com 1.10,2013-02-12 19:46:00,
2013-02-12 13:01:00,29.1,6.0,30.04,NNW,334,9.0,10.0,37,0.02,,,0.08,weatherlink.com 1.10,2013-02-12 20:01:00,
2013-02-12 13:16:00,29.9,5.0,30.03,NNW,337,2.0,9.0,35,0.02,,,0.09,weatherlink.com 1.10,2013-02-12 20:16:00,
2013-02-12 13:31:00,30.2,6.0,30.03,NNW,344,5.0,11.0,36,0.01,,,0.09,weatherlink.com 1.10,2013-02-12 20:31:00,
2013-02-12 13:46:00,30.2,7.0,30.03,NW,325,4.0,9.0,38,0.01,,,0.09,weatherlink.com 1.10,2013-02-12 20:46:00,
2013-02-12 14:01:00,30.5,6.0,30.04,NNW,338,1.0,11.0,35,0.01,,,0.09,weatherlink.com 1.10,2013-02-12 21:01:00,
2013-02-12 14:16:00,31.5,6.0,30.03,NNW,336,3.0,8.0,34,0.01,,,0.10,weatherlink.com 1.10,2013-02-12 21:16:00,
2013-02-12 14:31:00,31.7,5.0,30.03,NW,319,0.0,5.0,32,0.01,,,0.10,weatherlink.com 1.10,2013-02-12 21:31:00,
2013-02-12 14:46:00,31.8,6.0,30.03,NW,324,3.0,8.0,33,0.01,,,0.10,weatherlink.com 1.10,2013-02-12 21:46:00,
2013-02-12 15:01:00,31.7,5.0,30.03,NNW,332,0.0,5.0,32,0.01,,,0.10,weatherlink.com 1.10,2013-02-12 22:01:00,
2013-02-12 15:16:00,32.2,5.0,30.03,NW,321,0.0,5.0,31,0.00,,,0.10,weatherlink.com 1.10,2013-02-12 22:16:00,
2013-02-12 15:31:00,32.4,5.0,30.03,NW,315,2.0,6.0,32,0.00,,,0.10,weatherlink.com 1.10,2013-02-12 22:31:00,
2013-02-12 15:46:00,32.4,5.0,30.03,NNW,336,4.0,7.0,32,0.00,,,0.10,weatherlink.com 1.10,2013-02-12 22:46:00,
2013-02-12 16:01:00,32.6,7.0,30.03,NNW,337,3.0,6.0,34,0.00,,,0.10,weatherlink.com 1.10,2013-02-12 23:01:00,
2013-02-12 16:16:00,32.5,7.0,30.03,NNW,342,2.0,6.0,34,0.00,,,0.10,weatherlink.com 1.10,2013-02-12 23:16:00,
2013-02-12 16:31:00,31.8,6.0,30.03,NNW,342,0.0,8.0,33,0.00,,,0.10,weatherlink.com 1.10,2013-02-12 23:31:00,
2013-02-12 16:46:00,31.5,5.0,30.03,NNW,342,0.0,6.0,33,0.00,,,0.10,weatherlink.com 1.10,2013-02-12 23:46:00,
2013-02-12 17:01:00,30.9,6.0,30.04,NNW,340,2.0,4.0,35,0.00,,,0.10,weatherlink.com 1.10,2013-02-13 00:01:00,
2013-02-12 17:16:00,30.1,5.0,30.03,NNW,340,0.0,4.0,35,0.00,,,0.10,weatherlink.com 1.10,2013-02-13 00:16:00,
2013-02-12 17:32:00,29.5,6.0,30.04,NNW,340,0.0,1.0,37,0.00,,,0.10,weatherlink.com 1.10,2013-02-13 00:32:00,
2013-02-12 17:46:00,28.1,7.0,30.05,NNW,340,0.0,0.0,41,0.00,,,0.10,weatherlink.com 1.10,2013-02-13 00:46:00,
2013-02-12 18:02:00,24.4,7.0,30.05,NNW,340,0.0,3.0,48,0.00,,,0.10,weatherlink.com 1.10,2013-02-13 01:02:00,
2013-02-12 18:17:00,22.6,7.0,30.05,NNW,341,1.0,4.0,51,0.00,,,0.10,weatherlink.com 1.10,2013-02-13 01:17:00,
2013-02-12 18:32:00,22.1,7.0,30.06,NNW,344,1.0,5.0,52,0.01,,,0.11,weatherlink.com 1.10,2013-02-13 01:32:00,
2013-02-12 18:46:00,21.5,7.0,30.06,NNW,346,1.0,5.0,54,0.01,,,0.11,weatherlink.com 1.10,2013-02-13 01:46:00,
2013-02-12 19:01:00,20.7,7.0,30.07,NNW,347,2.0,4.0,55,0.01,,,0.11,weatherlink.com 1.10,2013-02-13 02:01:00,
2013-02-12 19:16:00,19.9,6.0,30.08,NNW,348,0.0,4.0,56,0.01,,,0.11,weatherlink.com 1.10,2013-02-13 02:16:00,
2013-02-12 19:31:00,19.8,6.0,30.07,NNW,348,0.0,3.0,56,0.00,,,0.11,weatherlink.com 1.10,2013-02-13 02:31:00,
2013-02-12 19:46:00,19.4,7.0,30.08,NNW,348,0.0,3.0,58,0.00,,,0.11,weatherlink.com 1.10,2013-02-13 02:46:00,
2013-02-12 20:01:00,19.2,7.0,30.09,NNW,348,0.0,3.0,58,0.00,,,0.11,weatherlink.com 1.10,2013-02-13 03:01:00,
2013-02-12 20:16:00,19.1,6.0,30.09,NNW,348,2.0,3.0,58,0.00,,,0.11,weatherlink.com 1.10,2013-02-13 03:16:00,
2013-02-12 20:31:00,20.7,7.0,30.09,NNW,348,0.0,6.0,55,0.00,,,0.11,weatherlink.com 1.10,2013-02-13 03:31:00,
2013-02-12 20:46:00,21.7,7.0,30.09,NNW,346,4.0,5.0,54,0.00,,,0.11,weatherlink.com 1.10,2013-02-13 03:46:00,
2013-02-12 21:01:00,22.2,7.0,30.09,WNW,302,5.0,8.0,53,0.00,,,0.11,weatherlink.com 1.10,2013-02-13 04:01:00,
2013-02-12 21:16:00,22.6,8.0,30.09,SSE,167,5.0,8.0,54,0.00,,,0.11,weatherlink.com 1.10,2013-02-13 04:16:00,
2013-02-12 21:31:00,22.3,8.0,30.10,SSE,167,2.0,9.0,55,0.00,,,0.11,weatherlink.com 1.10,2013-02-13 04:31:00,
2013-02-12 21:47:00,21.2,7.0,30.10,SSE,167,0.0,1.0,55,0.00,,,0.11,weatherlink.com 1.10,2013-02-13 04:47:00,
2013-02-12 22:01:00,20.0,8.0,30.10,SSE,167,4.0,5.0,60,0.00,,,0.11,weatherlink.com 1.10,2013-02-13 05:01:00,
2013-02-12 22:16:00,20.4,8.0,30.09,SSE,167,1.0,6.0,59,0.00,,,0.11,weatherlink.com 1.10,2013-02-13 05:16:00,
2013-02-12 22:31:00,20.7,8.0,30.09,SSE,167,3.0,6.0,59,0.00,,,0.11,weatherlink.com 1.10,2013-02-13 05:31:00,
2013-02-12 22:47:00,20.2,8.0,30.10,SSE,167,0.0,0.0,59,0.00,,,0.11,weatherlink.com 1.10,2013-02-13 05:47:00,
2013-02-12 23:01:00,18.1,7.0,30.09,SSE,167,0.0,3.0,62,0.00,,,0.11,weatherlink.com 1.10,2013-02-13 06:01:00,
2013-02-12 23:16:00,16.2,6.0,30.10,SSE,167,0.0,0.0,65,0.00,,,0.11,weatherlink.com 1.10,2013-02-13 06:16:00,
2013-02-12 23:32:00,14.9,6.0,30.10,SSE,167,0.0,1.0,68,0.00,,,0.11,weatherlink.com 1.10,2013-02-13 06:32:00,
2013-02-12 23:47:00,14.4,7.0,30.10,SSE,167,0.0,0.0,71,0.00,,,0.11,weatherlink.com 1.10,2013-02-13 06:47:00,